Terminal Aerodrome Forecast
Issued by NWS Raleigh/Durham, NC

Home | Current Version | Previous Version | Text Only | Print | Product List | Glossary On
Versions: 1 2 3 4 5 6 7 8 9 10 11 12 13 14 15 16 17 18 19 20 21 22 23 24 25 26 27 28 29 30 31 32 33 34 35 36 37 38 39 40 41 42 43 44 45 46 47 48 49 50
000
FTUS42 KRAH 281132
TAFFAY
TAF
KFAY 281132Z 2812/2912 32008KT P6SM SKC
      TEMPO 2813/2816 33010G16KT
     FM282300 VRB03KT P6SM FEW080=

USA.gov is the U.S. government's official web portal to all federal, state and local government web resources and services.